Theta_e
329 328 328 328 325 321 323 323 319 322 327 325 320 319 322 320 319 321 321 322 327 330 333 337 337 339 340 342 341 339 342 343 341 345 349 348 348 347 346 349 352 353 353 353 355 357 357 356 356 356 356 356 356 357 358 359 360 359 356 353 346 340 340
329 330 328 328 327 325 323 319 321 326 327 326 323 319 318 319 319 321 320 320 323 324 327 334 338 339 339 341 341 339 342 342 341 346 348 347 349 349 348 349 351 352 353 354 357 358 358 357 356 356 356 356 355 355 356 358 359 359 358 353 346 342 341
329 330 328 326 327 328 325 323 326 325 319 318 321 318 317 318 319 321 320 320 322 322 325 333 337 337 339 341 342 341 341 341 340 346 348 348 349 349 347 347 348 351 353 355 358 360 359 358 357 357 357 356 354 354 355 356 357 357 356 353 347 343 343
329 328 325 321 322 326 326 325 327 326 321 319 319 319 319 319 319 319 319 319 321 325 331 334 337 340 340 341 343 342 340 340 340 343 349 351 350 348 346 346 347 348 351 354 359 360 360 360 359 358 358 357 355 354 354 356 357 357 357 354 349 344 343
327 324 325 324 323 324 323 321 321 321 322 323 321 321 320 320 319 319 319 318 321 329 337 337 340 344 341 340 344 345 341 340 339 339 345 347 346 346 346 348 348 349 352 356 359 361 361 360 360 360 360 358 356 356 355 356 359 359 356 353 350 344 342
322 323 328 329 327 327 324 321 320 320 321 321 318 318 320 320 320 319 320 319 321 331 339 340 342 343 340 339 344 343 339 340 340 338 341 343 343 345 346 348 350 351 355 357 359 360 361 362 362 361 361 358 356 358 357 356 360 360 354 350 349 344 342
325 329 331 329 329 330 328 326 325 324 323 320 316 315 318 320 320 320 320 318 322 334 345 343 341 342 340 338 342 342 339 339 339 339 341 342 342 345 346 347 348 349 351 353 352 355 359 362 363 362 361 359 357 358 359 358 358 357 353 350 347 345 343
328 329 331 331 330 330 327 326 327 325 323 322 320 321 322 320 318 319 319 317 322 335 347 346 343 343 339 338 341 341 339 339 339 338 341 344 346 347 347 347 349 349 349 349 348 350 358 362 361 362 362 360 359 359 359 359 357 353 354 353 349 346 345
324 325 326 326 327 328 326 326 328 326 326 325 323 324 325 321 318 320 319 317 322 333 345 347 343 339 338 337 338 338 339 341 339 340 344 346 347 349 348 349 351 350 348 348 349 353 359 362 361 362 363 361 361 359 358 360 359 354 356 357 354 349 346
319 320 320 320 323 326 326 327 328 327 327 325 322 320 319 318 321 323 320 319 325 336 343 343 340 340 342 342 338 337 339 339 338 342 347 347 346 349 351 352 351 350 346 347 352 358 362 363 361 362 363 362 362 360 359 360 360 358 358 358 358 355 349
321 322 324 327 327 325 323 324 326 326 327 327 324 319 315 318 321 321 324 327 328 332 339 341 339 338 341 344 341 339 341 341 338 339 346 351 350 350 354 354 351 350 347 347 354 360 362 362 361 362 363 363 363 361 359 359 359 358 358 357 359 359 356
325 328 331 331 328 325 323 323 324 325 327 327 324 319 319 324 320 315 327 338 330 329 335 341 342 341 341 343 342 340 340 340 338 335 345 357 359 356 357 355 352 351 351 352 356 361 363 362 362 362 363 363 363 361 358 357 358 358 357 357 358 360 361
327 330 330 331 331 328 327 326 325 326 326 324 323 322 323 328 322 318 330 342 334 331 333 335 339 342 341 341 340 339 339 337 339 343 349 358 365 362 358 355 353 352 353 357 360 361 363 362 361 362 364 363 362 361 358 356 356 357 357 357 357 359 361
327 329 329 330 331 329 328 328 327 326 327 325 324 325 326 327 326 326 331 338 336 332 332 333 336 338 337 337 338 338 338 336 339 346 347 349 356 361 360 357 353 350 352 356 358 361 363 362 362 362 364 364 363 361 359 356 355 357 358 357 357 358 360
325 329 330 329 329 329 327 327 328 328 327 327 325 326 326 325 327 328 328 331 332 331 332 334 335 335 335 338 339 338 339 338 337 343 342 338 343 355 360 359 352 346 349 355 358 360 361 361 362 362 363 364 363 362 361 357 355 356 358 358 358 357 360
323 327 329 328 328 329 325 324 328 328 326 326 326 327 327 326 326 327 325 325 328 332 333 333 334 335 335 337 338 337 338 339 337 338 339 337 343 352 356 356 354 349 347 352 356 357 358 360 362 363 364 365 364 363 363 360 357 357 358 359 358 358 359
322 327 328 327 327 324 322 324 328 328 329 329 328 329 330 329 327 326 323 324 331 336 335 333 332 334 335 337 337 336 336 339 339 338 337 335 341 347 345 346 353 354 350 349 350 350 352 356 358 360 363 365 364 363 363 362 360 359 359 360 360 359 360
321 325 327 326 324 321 323 329 330 330 330 329 328 328 330 331 330 328 327 329 334 336 334 333 334 335 337 338 336 335 336 338 340 340 338 336 336 341 343 344 351 356 355 352 348 347 348 350 352 356 362 366 365 364 364 364 362 361 362 363 361 360 361
321 324 325 323 321 323 329 333 333 332 330 330 331 330 331 332 331 332 334 334 334 335 333 332 334 335 334 333 332 333 334 335 336 337 338 338 335 336 342 349 354 355 357 357 353 350 349 350 354 358 361 365 366 365 365 365 363 361 363 364 363 362 363
322 322 323 322 324 328 332 333 333 333 333 332 330 328 329 332 330 332 336 336 337 339 336 331 331 332 331 331 331 332 331 332 334 334 334 335 336 336 336 345 352 352 351 354 354 352 353 355 358 360 361 365 368 367 365 364 363 362 364 365 364 363 363
324 321 321 324 326 327 330 333 333 335 336 335 332 329 332 334 331 333 339 340 339 339 337 334 333 333 333 333 333 331 331 330 332 333 332 332 334 335 333 335 343 345 342 346 350 352 355 358 359 361 363 366 369 368 366 364 364 364 365 365 365 364 364
324 323 322 325 324 323 329 335 336 336 335 335 336 333 333 337 336 337 342 342 339 339 339 339 340 341 341 337 334 332 331 330 330 330 332 331 331 333 334 332 334 339 340 342 346 349 353 356 359 362 365 367 369 369 367 366 365 365 366 367 368 367 367
323 323 323 325 323 325 333 339 338 337 335 335 336 330 330 340 345 342 343 343 341 342 344 344 344 345 343 339 335 332 330 330 332 331 331 332 331 331 333 331 332 338 340 341 347 352 355 357 359 362 365 367 369 369 369 366 365 366 368 370 370 367 367
326 325 325 325 326 330 338 339 336 336 336 336 334 326 329 345 350 344 344 345 344 346 348 347 346 344 342 342 339 335 333 331 331 332 332 333 333 332 332 332 334 339 342 344 351 357 358 358 359 362 365 369 371 370 369 368 368 369 369 370 369 366 367
327 328 326 326 328 335 341 338 336 337 336 333 329 327 335 347 346 341 344 344 344 347 348 348 349 347 344 344 339 334 334 332 334 337 337 337 336 333 334 339 343 349 354 354 356 358 358 358 362 365 367 370 371 371 370 370 369 368 368 369 368 367 368
326 327 327 325 328 334 337 335 335 337 335 330 331 336 343 344 341 341 344 343 344 347 347 348 350 348 346 345 341 338 337 335 338 340 336 335 339 338 338 346 351 355 360 360 358 359 361 363 364 367 368 371 372 372 371 370 369 367 367 368 369 368 367
325 324 324 324 327 332 333 335 337 336 334 335 339 342 342 341 342 343 344 346 347 348 346 347 348 347 346 346 343 341 340 339 340 343 339 336 341 348 354 357 356 358 360 360 360 362 366 368 369 369 370 372 373 372 370 369 369 368 368 368 367 365 363
324 321 323 327 332 335 332 336 340 340 339 340 342 341 339 340 342 342 343 346 347 347 348 349 348 346 346 348 349 349 349 347 345 348 350 345 341 351 362 364 363 363 363 363 365 367 370 371 370 370 372 373 371 370 369 368 367 367 367 366 362 358 356
329 328 331 335 338 339 336 337 340 340 339 339 339 339 339 338 338 340 342 345 346 349 351 352 352 350 350 352 356 356 356 357 356 359 363 360 354 357 362 364 365 367 367 367 368 368 369 370 369 370 371 370 368 368 368 367 367 366 364 359 353 349 348
339 339 340 338 339 339 335 336 338 337 336 336 337 338 338 337 339 342 345 346 348 349 350 351 353 351 351 353 354 354 356 358 358 360 363 362 360 362 364 364 365 367 368 368 367 367 368 368 368 369 368 367 367 367 367 365 363 359 354 348 343 340 338
340 341 341 340 340 340 337 336 336 335 335 336 337 338 338 338 342 345 345 346 347 347 348 349 349 347 348 350 351 352 354 355 354 355 355 357 359 363 365 365 364 365 366 365 365 367 367 367 368 368 367 366 364 363 361 358 352 345 339 337 335 334 334
339 337 338 339 338 338 338 336 337 336 336 337 337 337 338 339 340 341 341 342 342 343 343 344 345 345 345 346 347 348 350 352 354 353 352 353 355 358 361 363 362 363 364 364 365 366 366 367 367 365 363 362 360 359 355 347 339 335 334 334 333 334 336
338 336 337 339 338 337 336 336 337 336 336 336 335 335 336 336 337 337 336 336 337 337 337 338 339 340 340 342 344 346 347 349 350 351 352 354 353 352 354 358 360 362 362 362 362 362 362 362 361 359 358 357 356 352 346 338 334 334 335 333 334 336 339
338 337 337 339 339 337 337 336 335 334 334 334 333 332 332 332 333 333 333 333 333 333 333 334 335 336 336 338 339 341 344 346 347 347 348 351 353 354 353 353 355 357 358 357 356 356 356 356 355 355 355 353 348 341 335 334 334 334 334 335 338 340 343
336 336 337 338 337 336 335 334 334 333 332 332 331 331 330 330 330 330 330 329 329 330 330 331 331 332 333 334 335 336 339 341 344 346 345 346 349 352 350 348 351 354 355 354 353 352 352 351 350 350 349 343 337 334 334 334 334 334 335 339 341 342 345
334 335 336 336 334 333 331 331 332 332 331 330 330 330 329 329 329 328 327 327 326 325 326 328 329 329 330 331 332 332 333 335 339 343 345 346 348 348 347 348 352 355 356 355 354 353 353 352 351 351 350 344 338 335 335 336 337 337 340 342 343 344 345
334 334 334 333 331 330 329 329 329 329 328 328 329 329 328 327 326 326 326 326 324 323 323 323 323 325 328 329 330 330 330 331 333 335 339 343 346 348 351 352 353 354 355 355 355 355 355 355 355 354 353 349 342 337 338 340 339 339 342 345 345 346 345
Wind_Speed
20 18 16 18 16 11 9 12 14 13 14 12 9 12 13 11 10 9 9 10 9 9 10 11 11 11 14 15 17 19 19 25 27 23 32 34 31 32 32 34 38 40 40 40 41 42 41 44 45 45 45 45 45 44 42 42 41 40 40 39 39 40 39
22 22 18 19 20 17 10 10 13 12 15 14 9 9 10 10 11 9 11 13 11 10 9 13 17 16 14 14 15 16 19 23 22 22 36 36 33 34 33 34 36 37 38 39 40 41 40 42 46 47 47 46 46 45 43 43 42 41 41 40 39 40 40
19 21 18 15 20 24 19 12 12 12 12 12 10 9 9 10 10 8 12 14 12 12 9 11 18 19 16 14 14 15 17 19 18 21 36 38 36 36 34 32 32 33 34 36 37 38 39 41 45 47 48 47 46 45 44 43 43 43 41 40 39 40 41
16 16 14 13 14 20 21 17 14 11 9 9 10 9 8 9 10 10 12 13 10 10 11 11 15 17 17 16 14 15 17 19 20 24 36 41 38 37 35 32 32 33 34 34 35 36 38 39 43 45 46 47 47 46 45 44 43 43 42 40 39 40 41
16 12 12 15 13 13 15 15 14 12 9 9 10 11 10 9 9 8 9 11 9 8 9 12 12 10 15 15 13 13 14 18 22 25 31 38 35 32 33 31 30 31 31 31 32 34 36 37 39 42 43 44 45 44 45 45 44 43 43 41 40 40 40
13 13 15 18 17 14 13 12 14 14 11 10 11 11 11 11 10 9 9 9 8 8 8 9 9 7 14 15 12 13 17 21 25 26 22 32 34 31 33 31 27 28 29 30 29 31 35 36 38 40 42 43 44 44 45 45 44 43 44 42 41 40 40
11 15 18 20 20 19 16 14 14 15 14 12 10 10 10 10 11 12 12 11 8 7 5 6 9 8 12 16 12 11 18 24 28 31 24 34 37 34 32 28 25 26 30 33 32 33 37 38 39 41 41 42 44 44 45 45 44 44 43 42 41 40 40
11 15 16 19 20 19 16 14 14 15 16 17 14 10 9 10 13 14 12 10 9 7 4 5 8 7 10 15 15 13 16 24 32 34 27 34 37 34 32 29 28 29 30 33 35 37 41 42 41 41 41 42 43 44 44 44 45 45 43 41 41 40 40
10 13 13 16 17 15 12 12 15 17 20 23 20 14 9 9 14 16 12 8 9 9 7 7 7 9 12 14 15 15 16 19 27 26 26 36 35 33 34 34 34 33 31 34 38 41 44 44 42 41 42 42 42 43 44 42 43 43 42 40 40 40 40
11 11 11 11 12 12 11 13 18 20 22 24 19 13 11 9 10 13 11 8 8 10 12 12 13 12 10 8 11 15 18 14 15 15 27 38 35 32 34 35 36 34 32 34 38 41 43 44 43 43 44 43 42 42 42 41 40 41 40 39 39 40 41
12 10 10 10 11 13 14 17 21 21 22 23 18 12 12 11 9 9 9 9 11 11 12 15 17 15 9 8 10 13 15 10 12 12 16 29 34 33 32 33 34 33 32 34 37 39 42 43 43 43 44 43 41 41 41 40 38 39 40 39 39 39 40
19 14 14 16 15 16 17 19 22 21 22 23 19 15 15 12 10 11 10 9 11 14 13 11 11 12 12 9 9 11 12 9 12 17 15 22 30 30 29 29 29 29 29 32 36 37 39 41 42 41 42 43 41 40 41 40 38 38 40 40 40 40 39
24 22 20 20 17 16 17 19 20 21 22 23 22 19 18 15 11 11 11 11 10 13 16 17 11 8 11 10 10 14 16 15 13 12 12 16 20 23 26 28 29 28 27 28 32 35 35 38 40 39 39 41 40 39 41 41 38 38 39 41 41 41 39
21 24 24 23 20 18 18 20 21 20 21 23 23 21 22 21 19 17 15 12 12 13 15 19 17 15 15 11 11 16 19 21 19 13 15 18 15 16 21 25 26 26 27 27 29 32 33 36 39 40 39 40 41 39 40 42 40 38 39 41 41 42 41
15 21 24 25 23 20 20 20 20 20 22 24 24 21 21 20 19 20 19 14 13 12 13 16 18 20 22 15 10 15 20 24 25 20 22 27 24 22 22 24 25 24 26 29 30 31 34 36 39 40 40 40 41 39 38 42 42 39 39 41 42 42 42
11 17 20 24 24 21 22 22 21 23 23 21 18 16 16 17 16 16 17 14 11 10 11 14 14 16 19 17 14 17 18 22 26 25 26 27 28 31 29 25 25 26 27 30 32 34 36 37 38 41 40 40 41 40 39 41 42 39 39 42 42 42 42
11 15 17 17 17 17 18 19 21 23 21 19 16 12 16 21 17 13 12 10 7 7 10 12 13 14 16 15 16 20 20 19 20 21 25 27 25 30 32 29 29 30 31 33 33 33 35 36 38 40 41 41 42 42 41 41 41 39 39 42 43 42 42
11 15 16 14 14 14 12 11 16 20 21 22 19 18 20 21 16 13 13 12 11 10 10 11 12 13 13 12 16 21 22 19 15 15 21 27 27 26 30 35 35 32 33 34 31 30 31 32 34 37 39 40 40 40 39 39 40 39 39 41 43 43 42
10 11 13 14 14 13 11 10 12 15 19 22 21 21 22 19 17 14 9 9 12 12 12 12 12 15 20 20 18 20 24 25 22 22 24 26 27 25 24 32 37 35 33 33 31 28 28 29 31 34 38 38 38 39 39 39 41 40 39 40 42 42 42
9 9 12 12 11 10 11 12 13 12 15 19 20 21 21 19 20 14 6 7 8 6 9 19 21 23 27 26 23 22 26 30 29 29 28 26 25 24 22 25 31 32 30 31 30 28 28 29 30 32 35 36 36 38 39 40 41 41 39 40 41 42 42
9 10 11 10 9 11 12 12 10 6 5 7 8 10 12 13 15 10 6 8 10 12 10 12 15 19 22 18 18 25 30 33 35 36 34 32 30 29 28 28 28 29 29 29 29 28 27 29 30 30 33 35 35 37 40 40 41 41 40 40 41 41 42
10 9 10 10 11 12 10 7 4 4 3 2 4 3 4 5 7 6 7 8 9 12 13 10 10 10 10 8 11 23 32 34 35 37 37 36 37 36 34 35 36 34 34 32 31 31 30 29 30 30 33 35 36 38 41 42 42 42 41 40 40 40 39
10 10 10 10 10 9 7 6 5 4 2 1 4 2 4 3 8 9 9 8 8 9 11 12 11 8 6 4 6 19 28 28 27 31 35 38 40 39 38 40 40 37 37 35 33 33 33 31 31 32 33 36 39 40 42 43 43 42 40 37 38 39 35
9 10 9 8 7 5 7 8 6 5 4 2 1 4 4 5 10 10 10 8 8 9 12 11 8 5 5 7 13 20 22 22 25 28 30 32 35 37 38 40 40 36 36 36 35 35 33 32 32 34 35 38 40 41 41 42 43 43 39 34 33 34 30
9 9 9 8 7 5 7 7 5 4 5 5 6 5 1 5 8 10 10 9 9 10 11 9 7 9 12 14 22 30 27 22 21 22 21 18 18 25 31 30 26 28 32 33 33 33 31 31 33 35 37 38 39 40 40 40 40 41 38 32 31 31 29
10 10 9 8 6 5 7 9 9 7 5 6 4 1 3 5 9 11 12 12 13 13 13 11 11 15 18 20 23 26 28 27 23 19 21 16 12 16 23 23 21 24 25 26 28 28 28 31 34 36 38 38 38 39 39 38 38 38 36 34 34 33 31
9 9 11 9 6 6 9 10 9 7 5 1 4 5 5 7 11 14 14 16 17 17 17 17 17 17 18 21 23 25 27 25 19 13 16 17 7 6 8 17 22 23 23 24 26 26 26 29 33 35 37 38 38 37 37 36 37 37 36 36 36 34 32
9 10 9 5 2 4 8 8 4 4 5 9 9 7 5 8 12 13 14 17 19 19 20 20 20 18 16 15 17 16 14 10 5 6 8 14 17 10 8 13 16 19 24 25 25 25 27 29 32 34 35 37 36 35 35 36 38 39 38 38 37 35 32
3 2 1 1 3 3 6 7 8 10 12 12 10 8 7 7 9 10 11 14 17 19 19 19 18 17 15 14 14 12 10 8 3 1 2 7 14 14 13 13 14 17 21 24 25 26 27 30 32 32 34 37 37 36 37 38 40 40 40 39 37 34 32
4 7 7 7 7 5 7 9 8 10 10 9 9 10 9 8 8 10 12 14 16 19 19 18 18 18 17 15 13 11 9 9 5 3 4 2 9 14 15 16 17 19 21 23 25 26 28 30 32 32 35 39 40 40 39 38 39 39 38 36 34 31 28
3 4 7 10 12 8 6 10 11 13 15 13 13 12 11 11 13 14 16 18 19 21 21 19 18 18 17 14 13 12 10 7 4 4 8 6 5 12 17 20 20 21 23 25 26 29 30 31 32 35 38 40 39 37 35 34 35 35 34 32 30 28 26
5 2 3 9 18 18 14 14 15 17 19 19 19 19 18 17 18 19 21 22 23 25 25 23 22 22 21 19 17 15 12 10 7 2 3 4 2 3 11 20 24 25 27 28 30 31 31 31 34 39 39 35 31 30 31 32 33 33 31 29 28 26 25
6 5 3 4 15 18 18 19 19 18 20 22 23 24 23 22 21 23 25 25 25 26 27 28 29 29 27 25 22 19 16 12 9 7 5 9 8 3 5 15 23 27 29 30 29 29 28 29 34 36 34 30 29 31 33 32 30 29 28 26 25 24 23
3 4 1 2 8 9 12 17 18 17 18 21 22 23 24 24 23 23 24 25 25 26 28 30 31 31 30 28 27 25 21 15 11 12 11 10 11 11 11 15 21 25 27 28 28 29 29 30 31 31 29 29 29 29 28 25 24 24 24 23 23 22 21
2 4 4 5 9 11 10 15 17 16 17 19 22 22 22 22 22 23 23 24 24 25 26 28 28 28 27 27 29 29 24 17 14 14 13 12 15 16 16 18 21 24 27 29 29 30 29 29 28 28 26 26 25 24 22 21 20 20 20 22 21 21 20
4 7 9 11 14 15 13 13 15 16 16 17 20 20 20 20 21 23 24 24 24 24 25 27 27 27 25 25 25 26 25 21 18 15 12 13 17 19 18 19 22 25 27 28 28 28 27 26 26 25 23 23 22 21 20 20 19 18 19 19 19 19 19
6 10 15 18 19 18 15 14 15 14 14 16 18 18 19 20 20 22 23 23 23 23 23 23 24 24 24 25 24 24 25 24 22 21 19 20 21 22 22 22 23 24 25 25 25 25 24 23 22 21 21 19 19 19 20 20 19 19 19 18 18 19 19
Wind_Direction
216 210 207 209 220 230 214 209 219 222 223 226 234 248 248 234 231 232 232 234 222 225 243 243 234 214 208 208 202 196 190 207 219 193 177 185 187 190 197 198 200 202 203 204 203 203 204 205 206 205 203 203 203 204 205 205 206 206 206 207 209 212 214
212 206 206 208 216 230 233 213 210 216 225 226 228 245 243 234 240 235 231 238 234 230 223 212 218 218 211 211 210 199 183 200 220 185 171 183 186 187 195 196 199 204 203 204 204 202 203 204 205 206 205 205 205 204 205 205 205 207 207 208 210 211 213
203 194 205 214 212 221 236 236 212 209 218 217 218 236 233 227 239 239 233 235 233 240 234 201 208 211 199 195 207 215 197 193 213 189 173 180 187 187 191 192 196 204 204 204 205 202 202 204 206 207 206 206 206 205 206 207 207 208 209 210 211 211 212
192 184 200 216 209 211 227 242 232 219 220 218 219 230 229 226 235 238 234 235 231 236 241 228 220 207 191 189 194 212 217 202 201 194 181 182 185 182 182 187 194 202 205 206 206 204 203 205 206 206 205 205 204 204 205 207 208 208 209 210 211 211 211
193 194 199 208 211 204 212 229 236 228 215 214 224 228 222 218 233 242 235 235 233 228 237 244 242 201 175 192 198 193 217 222 214 212 196 183 179 176 178 185 191 195 200 203 206 207 205 205 206 203 202 202 201 201 204 206 206 208 210 211 211 211 212
203 206 200 203 211 211 209 216 227 233 223 212 220 224 218 211 222 238 239 244 238 222 225 237 246 209 170 194 213 185 198 222 233 242 214 173 172 181 183 185 186 188 193 197 203 211 210 207 205 201 199 200 199 198 202 204 204 207 211 213 212 211 212
224 217 203 198 206 213 220 219 216 227 232 226 225 221 217 217 222 229 236 246 244 223 217 224 241 237 186 194 212 198 198 206 223 241 218 172 175 188 184 180 183 187 193 196 201 211 213 210 207 204 200 199 198 197 199 202 204 208 212 213 213 212 211
244 239 215 197 201 209 221 226 216 218 225 229 235 230 217 220 226 228 227 230 235 238 251 244 241 242 209 195 192 208 217 202 210 228 210 174 175 181 177 177 184 191 196 197 200 206 211 211 208 205 203 201 200 198 198 200 204 209 210 210 213 213 211
227 243 227 198 198 208 215 223 223 222 222 226 235 238 232 228 227 230 232 226 222 221 232 254 245 221 216 202 186 209 233 211 208 210 176 164 172 174 174 178 183 192 197 197 200 204 206 207 207 206 205 203 202 201 199 198 202 206 206 206 210 214 214
208 222 231 200 191 209 215 217 224 229 226 224 228 236 239 238 230 230 235 240 232 205 196 220 237 222 202 186 190 225 241 220 204 183 151 157 170 170 172 180 184 191 198 198 200 202 203 203 205 206 206 204 204 203 200 198 200 203 202 201 205 211 214
223 218 231 219 200 207 214 212 216 226 231 229 226 228 235 238 240 240 238 249 260 239 204 203 222 229 214 174 176 218 244 220 202 211 170 160 169 172 172 179 183 188 197 201 201 201 202 202 204 206 206 204 204 204 202 199 200 201 201 200 202 207 212
236 235 229 227 218 213 218 217 213 218 227 232 230 227 230 232 236 240 234 238 258 260 249 228 212 220 236 226 181 195 235 238 219 229 207 164 164 171 172 175 181 187 195 200 200 200 201 201 202 205 205 205 205 205 204 200 200 201 200 200 201 204 207
226 236 238 238 233 221 221 221 217 216 219 229 236 234 230 228 236 241 226 219 235 247 255 260 248 224 231 229 192 187 207 227 229 216 190 166 157 161 169 176 183 188 193 197 196 198 201 200 201 204 205 204 206 206 205 202 200 200 201 200 201 203 205
218 226 233 241 245 238 232 229 225 221 218 221 230 239 237 231 236 244 238 230 236 236 242 254 261 265 262 239 198 193 196 208 219 201 186 198 187 165 174 183 187 191 193 195 197 198 201 202 202 204 205 204 204 205 205 203 200 200 201 200 200 202 204
229 224 223 229 239 247 250 247 239 236 234 224 216 225 237 239 239 240 238 238 242 239 238 244 247 256 265 264 237 222 206 202 213 213 208 212 200 183 189 189 190 197 196 194 199 199 201 205 204 205 206 205 204 203 204 203 201 200 201 200 199 201 203
241 237 226 219 225 236 244 247 242 240 245 240 223 215 225 237 246 244 236 231 233 231 230 235 236 235 246 256 259 253 235 215 217 217 215 213 195 183 191 195 192 197 197 196 200 202 205 207 206 206 207 206 203 201 202 203 200 200 202 200 198 200 202
233 239 238 226 223 230 233 235 237 239 246 249 245 238 229 227 232 244 248 245 246 244 234 234 237 232 233 238 244 253 252 237 230 225 219 221 209 191 194 203 203 198 197 199 201 203 207 208 208 209 208 207 205 202 202 201 198 198 202 201 198 198 200
230 229 237 238 232 233 231 229 233 238 246 247 242 239 237 231 223 222 230 236 240 246 248 246 246 247 252 248 236 245 257 255 254 252 234 228 228 213 198 200 205 200 195 199 203 205 208 210 211 210 207 208 207 204 202 199 196 197 200 199 196 196 197
230 224 227 231 230 234 242 247 241 237 245 252 254 252 248 244 241 235 228 237 238 232 233 243 255 263 268 268 251 245 256 260 257 258 252 238 234 230 208 196 198 198 196 198 203 208 210 210 209 206 205 207 206 203 202 198 194 197 199 196 194 195 196
225 219 220 227 237 241 243 249 252 245 238 241 249 255 253 251 252 260 314 319 288 278 242 228 228 236 246 255 255 244 248 259 259 254 253 249 244 241 230 210 199 197 201 205 207 211 210 204 203 204 204 204 202 202 202 197 193 196 196 194 193 194 196
217 220 223 232 246 245 238 239 245 252 250 242 244 253 256 261 265 275 328 328 330 345 312 250 235 241 235 231 239 237 236 246 253 255 257 257 256 253 248 243 233 219 215 214 213 213 208 200 200 202 201 200 199 199 198 194 192 193 194 193 193 194 195
209 215 227 231 233 232 225 212 181 112 80 19 19 351 286 297 316 337 359 341 335 339 325 323 342 316 266 227 225 231 232 234 238 247 253 256 259 259 254 254 251 234 218 212 211 212 210 204 200 199 197 196 197 196 194 191 189 190 192 191 191 191 192
205 207 222 226 230 231 209 176 137 112 148 68 41 318 265 360 14 10 12 354 339 344 337 337 353 344 301 286 245 234 235 234 233 241 247 246 248 250 249 251 250 234 214 208 208 207 205 201 197 196 195 194 195 194 191 188 187 187 188 189 190 190 189
216 214 222 226 234 223 177 167 160 154 167 136 84 236 239 26 18 10 12 0 352 358 348 337 334 318 309 315 298 281 264 243 237 245 250 247 242 238 239 245 244 227 209 204 201 198 199 199 195 193 191 190 193 193 188 184 184 184 184 185 187 186 182
224 222 225 233 237 201 164 178 193 154 153 192 222 221 193 14 358 360 359 348 351 353 342 338 332 314 312 309 301 298 291 274 262 258 259 268 262 244 239 241 229 205 193 192 194 195 199 197 191 188 188 188 190 190 184 180 181 182 183 180 177 175 171
220 224 230 236 233 207 192 197 191 175 191 216 217 126 38 8 356 1 355 346 352 352 339 331 323 314 315 312 304 297 293 297 304 285 257 261 295 274 244 225 204 190 182 182 190 194 193 190 187 185 184 185 187 186 182 179 178 178 177 173 169 167 165
216 220 223 228 232 219 211 203 188 188 210 169 51 32 30 29 15 7 4 0 357 348 337 328 319 315 318 318 310 300 293 298 315 304 251 227 235 292 228 188 184 186 182 183 188 187 182 182 182 181 181 182 183 181 178 174 171 169 167 166 164 163 161
223 224 223 228 248 206 193 184 154 111 89 72 52 26 33 44 26 15 11 6 359 349 338 328 319 313 317 323 319 310 305 304 306 300 256 208 197 193 158 153 164 172 174 177 178 175 174 176 176 178 180 180 177 174 171 167 164 162 161 160 160 160 159
204 215 257 90 80 123 156 147 125 108 91 72 55 45 50 48 30 24 19 8 5 4 356 347 341 335 332 338 344 345 356 12 27 246 233 182 177 170 160 157 156 156 162 167 168 169 171 172 172 175 177 174 169 166 164 161 158 156 156 158 160 161 161
64 48 34 54 67 78 114 121 116 111 100 82 72 68 64 63 59 54 48 36 29 28 23 14 9 5 359 357 359 2 5 8 4 316 291 211 159 156 157 158 157 156 157 160 162 162 163 165 168 169 169 167 162 157 155 154 153 154 156 158 159 160 160
25 28 18 39 43 38 94 111 91 83 90 92 89 86 80 77 75 66 59 54 48 42 37 30 25 22 18 13 11 12 13 16 14 298 277 266 183 159 157 157 159 162 162 161 160 158 158 161 161 159 159 159 155 151 151 152 154 155 155 155 156 158 160
76 108 335 52 62 51 52 74 75 72 79 80 77 80 84 84 80 72 64 59 55 49 42 37 36 36 31 24 19 16 14 17 30 36 228 218 185 144 154 157 159 160 159 158 156 152 150 150 152 154 155 153 149 148 150 152 152 151 151 154 157 160 162
97 139 239 77 82 69 57 64 72 73 76 75 71 72 75 77 76 73 68 64 60 56 50 46 45 44 38 32 29 28 24 21 27 46 100 144 154 155 138 140 144 145 145 144 141 137 136 140 146 149 148 143 143 146 148 149 150 151 153 156 159 161 162
122 123 181 73 91 84 55 53 62 71 76 77 76 73 70 68 68 69 69 66 63 59 54 50 49 48 44 41 37 32 26 24 38 56 69 100 128 137 129 119 122 126 128 128 127 126 128 133 136 134 132 133 138 142 142 144 149 153 154 155 157 158 156
116 83 80 84 97 99 68 45 50 62 70 74 76 75 73 70 66 65 65 63 60 57 52 50 49 47 45 45 43 37 30 25 39 60 74 88 100 111 118 116 114 114 114 116 118 118 120 124 124 123 126 131 134 137 139 143 148 152 152 152 152 151 151
122 107 94 91 93 94 83 61 53 55 61 68 70 69 71 72 68 65 65 62 60 58 55 52 53 51 46 45 45 42 38 33 33 46 69 88 93 96 99 99 100 101 102 105 108 110 113 116 116 118 123 129 135 139 140 143 147 148 147 146 144 145 152
127 119 101 96 94 91 86 77 64 58 64 70 66 61 64 69 69 67 65 62 61 63 61 60 62 58 51 46 43 41 42 41 35 36 46 59 69 76 79 80 83 87 91 96 100 105 109 112 114 118 122 127 134 137 137 142 147 144 142 143 145 153 163